カタログに戻る

FENGYUN 2D AKM

運用中MEO
NORAD 29642·ROCKET BODY·🇨🇳 China

打ち上げ Dec 8, 2006 から Xichang Satellite Launch Center

Loading…

次のパス (今後24時間)

TLE

最新Source: Space-Track

元期: Sep 14, 2026, 12:19 UTC

1 29642U 06053C   26257.51334198  .00000031  00000-0  00000+0 0  9996
2 29642  11.9680  37.0380 0106441  50.0351 138.8640  0.99353430 47143

AllMySatでFENGYUN 2D AKMをリアルタイム追跡

Download on the App Store